Sigfox identifier Datetime Temperature Humidity SNR
0038684F 2018-10-09 09:24:59 21.1 37 10
0038684F 2018-10-09 08:21:15 21 38 10
0038684F 2018-10-09 07:17:29 21 38 10
0038684F 2018-10-09 06:13:38 21 38 10.2
0038684F 2018-10-09 05:09:50 21 38 17
0038684F 2018-10-09 01:58:42 21.1 37 19.6
0038684F 2018-10-09 00:55:02 21.1 37 19.6
0038684F 2018-10-08 23:51:20 21 37 19.6
0038684F 2018-10-08 22:47:35 21 37 19.6
0038684F 2018-10-08 21:43:49 21 37 19.6
0038684F 2018-10-08 20:40:07 21 37 19.6
0038684F 2018-10-08 19:36:17 21 37 19.6
0038684F 2018-10-08 18:32:32 20.8 37 19.6
0038684F 2018-10-08 17:28:54 20.9 37 19.6
0038684F 2018-10-08 16:25:09 20.8 37 19.6
0038684F 2018-10-08 13:13:50 20.6 37 19.6
0038684F 2018-10-08 08:58:43 20.6 38 19.6
0038684F 2018-10-08 07:54:59 20.7 38 19.6
0038684F 2018-10-08 06:51:16 20.8 38 19.6
0038684F 2018-10-08 05:47:35 20.8 38 19.6
0038684F 2018-10-08 04:43:57 20.8 38 19.6
0038684F 2018-10-08 03:40:14 20.9 39 19.7
0038684F 2018-10-08 02:36:33 20.8 39 19.7
0038684F 2018-10-08 00:29:11 20.8 39 19.7
0038684F 2018-10-07 23:25:28 20.9 39 19.7
0038684F 2018-10-07 22:21:48 20.9 39 19.7
0038684F 2018-10-07 20:14:28 20.9 39 19.7
0038684F 2018-10-07 19:10:47 20.9 39 17.4
0038684F 2018-10-07 18:07:09 20.9 39 17.4
0038684F 2018-10-07 17:03:25 20.9 39 11.7
0038684F 2018-10-07 14:56:12 21 39 11.4
0038684F 2018-10-07 13:52:28 21 39 11.4
0038684F 2018-10-07 12:48:45 21 39 11.2
0038684F 2018-10-07 10:41:22 21 39 11.1
0038684F 2018-10-07 09:37:36 21.1 39 11
0038684F 2018-10-07 08:33:54 21 39 11
0038684F 2018-10-07 07:30:11 21.1 40 11.2
0038684F 2018-10-07 05:22:44 21 40 11.4
0038684F 2018-10-07 04:19:01 21 40 11.3
0038684F 2018-10-07 03:15:12 21 40 11.4
0038684F 2018-10-07 01:07:48 21 40 11.3
0038684F 2018-10-07 00:04:03 21.2 40 11.4
0038684F 2018-10-06 23:00:18 21.2 40 11.4
0038684F 2018-10-06 21:56:35 21.2 40 11.4
0038684F 2018-10-06 20:52:51 21.3 40 11.6
0038684F 2018-10-06 19:49:05 21.2 40 11.7
0038684F 2018-10-06 18:45:22 21.3 40 11.3
0038684F 2018-10-06 17:41:39 21.3 40 11.4
0038684F 2018-10-06 16:37:56 21.3 40 11.3
0038684F 2018-10-06 14:30:26 21.3 40 11.3
0038684F 2018-10-06 13:26:40 21.3 40 11.2
0038684F 2018-10-06 12:22:59 21.3 40 10.9
0038684F 2018-10-06 11:19:13 21.3 40 10.8
0038684F 2018-10-06 10:15:37 21.3 40 17.1
0038684F 2018-10-06 09:11:55 21.3 41 17.1
0038684F 2018-10-06 08:08:12 21.4 41 17.1
0038684F 2018-10-06 07:04:29 21.4 41 17.1
0038684F 2018-10-06 06:00:44 21.5 41 17.3
0038684F 2018-10-06 04:57:05 21.5 41 17.4
0038684F 2018-10-06 03:53:28 21.5 41 17.6
0038684F 2018-10-06 02:49:45 21.5 41 17.7
0038684F 2018-10-05 23:38:38 21.5 41 17.9
0038684F 2018-10-05 22:34:58 21.5 41 18
0038684F 2018-10-05 20:27:34 21.6 40 18.2
0038684F 2018-10-05 19:23:51 21.7 40 18.4
0038684F 2018-10-05 18:20:07 21.5 40 18.6
0038684F 2018-10-05 17:16:28 21.5 40 18.8
0038684F 2018-10-05 16:12:46 21.5 39 19.1
0038684F 2018-10-05 15:09:07 21.5 39 19.3
0038684F 2018-10-05 13:01:42 21.3 39 19.5
0038684F 2018-10-05 08:47:05 20.9 32 19.9
0038684F 2018-10-05 06:39:34 20.9 32 20.2
0038684F 2018-10-05 04:32:07 20.9 32 20.6
0038684F 2018-10-05 00:16:52 21.1 32 21
0038684F 2018-10-04 23:12:58 21.1 32 21.4
0038684F 2018-10-04 22:09:06 21 32 21.9
0038684F 2018-10-04 21:05:16 21.1 32 22.6
0038684F 2018-10-04 20:01:24 21 32 23.3
0038684F 2018-10-04 18:57:34 21 32 13
0038684F 2018-10-04 16:49:56 21 31 13.8
0038684F 2018-10-04 15:46:00 21 31 15.1
0038684F 2018-10-04 14:42:11 21 32 16.7
0038684F 2018-10-04 13:38:23 20.6 39 0